Presque Isle, ME

8:44 PM EST on February 05, 2016 (GMT -0500)
Northern Maine Regional At Presque Isle

Weather History for KPQI - January, 2013

Change the Weather History Date:

Monday, January 14, 2013

  Actual Average Record
Temperature  
Mean Temperature 40 °F -  
Max Temperature 53 °F 21 °F 53 °F (2005)
Min Temperature 26 °F 0 °F -35 °F (1957)
Degree Days  
Heating Degree Days 26    
Moisture  
Dew Point 29 °F    
Average Humidity 69    
Maximum Humidity 93    
Minimum Humidity 46    
Precipitation  
Precipitation 0.00 in - - ()
Sea Level Pressure  
Sea Level Pressure 29.81 in    
Wind  
Wind Speed 9 mph (SW)    
Max Wind Speed 24 mph    
Max Gust Speed 37 mph    
Visibility 9 miles    
Events      
Averages and records for this station are not official NWS values.
T = Trace of Precipitation, MM = Missing Value Source: NWS Daily Summary

Daily Weather History Graph

Daily Weather History Graph

Search for Another Location

Airport or City:

Trip Planner

Search our weather history database for the weather conditions in past years. The results will help you decide how hot, cold, wet, or windy it might be!

Date:

Astronomy

Jan. 14, 2013 Rise Set
Actual Time 7:12 AM EST 4:10 PM EST
Civil Twilight 6:38 AM EST 4:44 PM EST
Nautical Twilight 6:01 AM EST 5:21 PM EST
Astronomical Twilight 5:24 AM EST 5:58 PM EST
Moon 8:29 AM EST (1/14) 8:08 PM EST (1/14)
Length of Visible Light 10h 05m
Length of Day
8h 57m
Waxing Crescent, 11% of the Moon is Illuminated
Jan 14
Waxing Crescent
Jan 18
First Quarter
Jan 26
Full
Feb 3
Last Quarter
Feb 10
New

Hourly Weather History & Observations

Time (EST) Temp. Windchill Dew Point Humidity Pressure Visibility Wind Dir Wind Speed Gust Speed Precip Events Conditions
12:15 AM 37.4 °F 34.9 °F 33.8 °F 87% 29.78 in 10.0 mi SE 3.5 mph - N/A   Overcast
12:35 AM 37.4 °F 32.8 °F 33.8 °F 87% 29.78 in 10.0 mi SE 5.8 mph - N/A   Overcast
12:55 AM 37.4 °F 33.8 °F 33.8 °F 87% 29.78 in 10.0 mi SE 4.6 mph - N/A   Overcast
1:15 AM 37.4 °F 32.8 °F 33.8 °F 87% 29.78 in 10.0 mi SE 5.8 mph - N/A   Overcast
1:35 AM 37.4 °F 32.1 °F 33.8 °F 87% 29.79 in 10.0 mi SSE 6.9 mph - N/A   Overcast
1:55 AM 37.4 °F 32.1 °F 33.8 °F 87% 29.78 in 10.0 mi SSE 6.9 mph - N/A   Overcast
2:35 AM 37.4 °F 31.4 °F 35.6 °F 93% 29.77 in 10.0 mi SSE 8.1 mph - N/A   Overcast
2:55 AM 37.4 °F 32.8 °F 35.6 °F 93% 29.76 in 10.0 mi SSE 5.8 mph - N/A   Overcast
3:15 AM 37.4 °F 31.4 °F 35.6 °F 93% 29.75 in 10.0 mi SSE 8.1 mph - N/A   Overcast
3:35 AM 37.4 °F 32.8 °F 35.6 °F 93% 29.74 in 10.0 mi SSE 5.8 mph - N/A   Overcast
3:55 AM 37.4 °F 30.8 °F 35.6 °F 93% 29.70 in 10.0 mi SSE 9.2 mph - N/A   Overcast
4:15 AM 37.4 °F 30.3 °F 35.6 °F 93% 29.70 in 10.0 mi SSE 10.4 mph - N/A   Overcast
4:35 AM 37.4 °F 30.8 °F 35.6 °F 93% 29.69 in 7.0 mi SSE 9.2 mph - N/A   Overcast
4:55 AM 37.4 °F 30.8 °F 35.6 °F 93% 29.68 in 10.0 mi SE 9.2 mph - N/A   Overcast
5:15 AM 37.4 °F 30.8 °F 35.6 °F 93% 29.67 in 6.0 mi SSE 9.2 mph - N/A   Overcast
5:35 AM 37.4 °F 31.4 °F 35.6 °F 93% 29.67 in 6.0 mi SSE 8.1 mph - N/A   Overcast
5:55 AM 37.4 °F 31.4 °F 35.6 °F 93% 29.67 in 5.0 mi SSE 8.1 mph - N/A   Overcast
6:15 AM 37.4 °F 33.8 °F 35.6 °F 93% 29.67 in 3.0 mi SE 4.6 mph - N/A   Overcast
6:35 AM 37.4 °F - 35.6 °F 93% 29.67 in 2.5 mi Calm Calm - N/A   Overcast
6:55 AM 37.4 °F 34.9 °F 35.6 °F 93% 29.67 in 1.0 mi SE 3.5 mph - N/A   Overcast
7:15 AM 37.4 °F 32.8 °F 35.6 °F 93% 29.66 in 0.5 mi SSE 5.8 mph - N/A   Overcast
7:35 AM 37.4 °F 32.8 °F 35.6 °F 93% 29.66 in 0.8 mi SSE 5.8 mph - N/A   Overcast
7:55 AM 37.4 °F 32.1 °F 35.6 °F 93% 29.65 in 6.0 mi SSE 6.9 mph - N/A   Overcast
8:15 AM 37.4 °F 32.1 °F 35.6 °F 93% 29.65 in 7.0 mi SSE 6.9 mph - N/A   Overcast
8:35 AM 39.2 °F 33.6 °F 35.6 °F 87% 29.65 in 10.0 mi South 8.1 mph - N/A   Overcast
8:55 AM 42.8 °F 37.5 °F 37.4 °F 81% 29.65 in 10.0 mi South 9.2 mph - N/A   Overcast
9:15 AM 42.8 °F 38.0 °F 39.2 °F 87% 29.66 in 10.0 mi South 8.1 mph - N/A   Overcast
9:35 AM 42.8 °F 37.5 °F 39.2 °F 87% 29.67 in 10.0 mi South 9.2 mph - N/A   Overcast
9:55 AM 42.8 °F 36.6 °F 37.4 °F 81% 29.65 in 10.0 mi South 11.5 mph - N/A   Mostly Cloudy
10:15 AM 44.6 °F 38.8 °F 39.2 °F 81% 29.64 in 10.0 mi South 11.5 mph - N/A   Scattered Clouds
10:35 AM 44.6 °F 40.7 °F 39.2 °F 81% 29.65 in 10.0 mi South 6.9 mph - N/A   Mostly Cloudy
10:55 AM 46.4 °F 45.2 °F 39.2 °F 76% 29.64 in 10.0 mi SW 3.5 mph - N/A   Mostly Cloudy
11:15 AM 48.2 °F - 41.0 °F 76% 29.66 in 10.0 mi SW 4.6 mph - N/A   Mostly Cloudy
11:35 AM 51.8 °F - 41.0 °F 67% 29.66 in 10.0 mi SW 10.4 mph 16.1 mph N/A   Overcast
11:55 AM 51.8 °F - 37.4 °F 58% 29.66 in 10.0 mi West 16.1 mph 25.3 mph N/A   Mostly Cloudy
12:15 PM 53.6 °F - 35.6 °F 51% 29.67 in 10.0 mi West 23.0 mph 34.5 mph N/A   Mostly Cloudy
12:35 PM 51.8 °F - 33.8 °F 50% 29.69 in 10.0 mi West 24.2 mph 34.5 mph N/A   Overcast
12:55 PM 51.8 °F - 33.8 °F 50% 29.70 in 10.0 mi West 20.7 mph 31.1 mph N/A   Overcast
1:15 PM 50.0 °F - 30.2 °F 47% 29.71 in 10.0 mi West 21.9 mph 36.8 mph N/A   Unknown
1:35 PM 48.2 °F - 28.4 °F 46% 29.73 in 10.0 mi WSW 19.6 mph 34.5 mph N/A   Clear
1:55 PM 48.2 °F - 28.4 °F 46% 29.75 in 10.0 mi WSW 17.3 mph 32.2 mph N/A   Partly Cloudy
2:15 PM 46.4 °F 39.0 °F 28.4 °F 50% 29.77 in 10.0 mi West 19.6 mph 26.5 mph N/A   Mostly Cloudy
2:35 PM 46.4 °F 39.5 °F 26.6 °F 46% 29.79 in 10.0 mi West 17.3 mph 23.0 mph N/A   Mostly Cloudy
2:55 PM 46.4 °F 39.5 °F 26.6 °F 46% 29.82 in 10.0 mi WNW 17.3 mph 23.0 mph N/A   Scattered Clouds
3:15 PM 44.6 °F 37.2 °F 24.8 °F 46% 29.83 in 10.0 mi West 17.3 mph 33.4 mph N/A   Partly Cloudy
3:35 PM 44.6 °F 37.8 °F 26.6 °F 49% 29.85 in 10.0 mi WNW 15.0 mph 21.9 mph N/A   Mostly Cloudy
3:55 PM 42.8 °F 34.8 °F 24.8 °F 49% 29.86 in 10.0 mi West 17.3 mph 28.8 mph N/A   Scattered Clouds
4:15 PM 41.0 °F 35.2 °F 24.8 °F 53% 29.87 in 10.0 mi WSW 9.2 mph - N/A   Mostly Cloudy
4:35 PM 41.0 °F 32.8 °F 24.8 °F 53% 29.88 in 10.0 mi West 16.1 mph 21.9 mph N/A   Mostly Cloudy
4:55 PM 41.0 °F 31.9 °F 24.8 °F 53% 29.90 in 10.0 mi West 19.6 mph 27.6 mph N/A   Mostly Cloudy
5:15 PM 39.2 °F 30.8 °F 24.8 °F 56% 29.91 in 10.0 mi West 15.0 mph 19.6 mph N/A   Scattered Clouds
5:35 PM 39.2 °F 30.8 °F 24.8 °F 56% 29.91 in 10.0 mi West 15.0 mph 20.7 mph N/A   Mostly Cloudy
5:55 PM 37.4 °F 28.5 °F 24.8 °F 60% 29.93 in 10.0 mi West 15.0 mph 21.9 mph N/A   Mostly Cloudy
6:15 PM 37.4 °F 28.5 °F 21.2 °F 52% 29.94 in 10.0 mi West 15.0 mph 23.0 mph N/A   Mostly Cloudy
6:35 PM 37.4 °F 27.5 °F 21.2 °F 52% 29.95 in 10.0 mi WNW 18.4 mph 24.2 mph N/A   Partly Cloudy
6:55 PM 37.4 °F 30.3 °F 21.2 °F 52% 29.96 in 10.0 mi West 10.4 mph - N/A   Partly Cloudy
7:15 PM 35.6 °F 26.6 °F 19.4 °F 52% 29.95 in 10.0 mi WNW 13.8 mph 18.4 mph N/A   Partly Cloudy
7:35 PM 35.6 °F 26.2 °F 19.4 °F 52% 29.97 in 10.0 mi West 15.0 mph 20.7 mph N/A   Clear
7:55 PM 35.6 °F 27.1 °F 19.4 °F 52% 29.98 in 10.0 mi West 12.7 mph 19.6 mph N/A   Partly Cloudy
8:15 PM 33.8 °F 25.8 °F 19.4 °F 56% 30.00 in 10.0 mi WNW 10.4 mph - N/A   Partly Cloudy
8:35 PM 33.8 °F 27.0 °F 19.4 °F 56% 30.01 in 10.0 mi NNW 8.1 mph - N/A   Mostly Cloudy
8:55 PM 33.8 °F 25.8 °F 15.8 °F 48% 30.01 in 10.0 mi NW 10.4 mph - N/A   Mostly Cloudy
9:15 PM 32.0 °F 23.6 °F 14.0 °F 48% 30.03 in 10.0 mi NW 10.4 mph 17.3 mph N/A   Mostly Cloudy
9:35 PM 30.2 °F 20.8 °F 14.0 °F 51% 30.04 in 10.0 mi NW 11.5 mph - N/A   Mostly Cloudy
9:55 PM 30.2 °F 21.9 °F 12.2 °F 47% 30.05 in 10.0 mi NNW 9.2 mph - N/A   Partly Cloudy
10:15 PM 30.2 °F 24.3 °F 12.2 °F 47% 30.06 in 10.0 mi NNW 5.8 mph - N/A   Partly Cloudy
10:35 PM 30.2 °F 22.6 °F 12.2 °F 47% 30.05 in 10.0 mi NW 8.1 mph - N/A   Clear
10:55 PM 28.4 °F 20.4 °F 12.2 °F 51% 30.06 in 10.0 mi NNW 8.1 mph - N/A   Clear
11:15 PM 26.6 °F 19.1 °F 15.8 °F 64% 30.07 in 10.0 mi North 6.9 mph - N/A   Partly Cloudy
11:35 PM 26.6 °F 17.5 °F 14.0 °F 59% 30.08 in 10.0 mi North 9.2 mph - N/A   Clear
11:55 PM 26.6 °F 17.5 °F 15.8 °F 64% 30.08 in 10.0 mi North 9.2 mph - N/A   Clear